Time,TemperatureF,DewpointF,PressureIn,WindDirection,WindDirectionDegrees,WindSpeedMPH,WindSpeedGustMPH,Humidity,HourlyPrecipIn,Conditions,Clouds,dailyrainin,SoftwareType,DateUTC
2013-01-30 00:00:00,25.5,25.0,29.65,NW,315,0.0,0.0,98,0.00,RA,SKC,0.00,WeatherDisplay:10.37,2013-01-30 06:00:00,
2013-01-30 00:06:00,25.5,25.0,29.65,NW,315,0.0,0.0,98,0.00,RA,SKC,0.00,WeatherDisplay:10.37,2013-01-30 06:06:00,
2013-01-30 00:11:00,25.3,24.9,29.63,NW,315,0.0,0.0,98,0.00,CLR,SKC,0.00,WeatherDisplay:10.37,2013-01-30 06:11:00,
2013-01-30 00:16:00,25.3,24.9,29.65,NW,315,0.0,0.0,98,0.00,CLR,SKC,0.00,WeatherDisplay:10.37,2013-01-30 06:16:00,
2013-01-30 00:21:00,25.3,24.9,29.64,NW,315,0.0,0.0,98,0.00,CLR,SKC,0.00,WeatherDisplay:10.37,2013-01-30 06:21:00,
2013-01-30 00:26:00,25.3,24.9,29.63,NW,315,0.0,0.0,98,0.00,CLR,SKC,0.00,WeatherDisplay:10.37,2013-01-30 06:26:00,
2013-01-30 00:32:00,25.2,24.7,29.64,NW,315,0.0,0.0,98,0.00,CLR,SKC,0.00,WeatherDisplay:10.37,2013-01-30 06:32:00,
2013-01-30 00:37:00,25.2,24.7,29.65,NW,315,0.0,0.0,98,0.00,CLR,SKC,0.00,WeatherDisplay:10.37,2013-01-30 06:37:00,
2013-01-30 00:42:00,25.2,24.7,29.64,NW,315,0.0,0.0,98,0.00,CLR,SKC,0.00,WeatherDisplay:10.37,2013-01-30 06:42:00,
2013-01-30 00:47:00,25.2,24.7,29.64,NW,315,0.0,0.0,98,0.00,CLR,SKC,0.00,WeatherDisplay:10.37,2013-01-30 06:47:00,
2013-01-30 00:52:00,25.2,24.7,29.63,NW,315,0.0,0.0,98,0.00,CLR,SKC,0.00,WeatherDisplay:10.37,2013-01-30 06:52:00,
2013-01-30 00:58:00,25.2,24.7,29.62,NW,315,0.0,0.0,98,0.00,CLR,SKC,0.00,WeatherDisplay:10.37,2013-01-30 06:58:00,
2013-01-30 01:03:00,25.2,24.7,29.63,NW,315,0.0,0.0,98,0.00,CLR,SKC,0.00,WeatherDisplay:10.37,2013-01-30 07:03:00,
2013-01-30 01:08:00,25.2,24.7,29.64,NW,315,0.0,0.0,98,0.00,CLR,SKC,0.00,WeatherDisplay:10.37,2013-01-30 07:08:00,
2013-01-30 01:13:00,25.2,24.7,29.62,NW,315,0.0,0.0,98,0.00,CLR,SKC,0.00,WeatherDisplay:10.37,2013-01-30 07:13:00,
2013-01-30 01:18:00,25.0,24.5,29.61,NW,315,0.0,0.0,98,0.00,CLR,SKC,0.00,WeatherDisplay:10.37,2013-01-30 07:18:00,
2013-01-30 01:23:00,25.0,24.5,29.61,NW,315,0.0,0.0,98,0.00,CLR,SKC,0.00,WeatherDisplay:10.37,2013-01-30 07:23:00,
2013-01-30 01:29:00,25.0,24.5,29.61,NW,315,0.0,0.0,98,0.00,CLR,SKC,0.00,WeatherDisplay:10.37,2013-01-30 07:29:00,
2013-01-30 01:34:00,25.0,24.5,29.59,NW,315,0.0,0.0,98,0.00,CLR,SKC,0.00,WeatherDisplay:10.37,2013-01-30 07:34:00,
2013-01-30 01:39:00,24.8,24.6,29.59,NW,315,0.0,0.0,99,0.00,CLR,SKC,0.00,WeatherDisplay:10.37,2013-01-30 07:39:00,
2013-01-30 01:44:00,24.8,24.6,29.58,NW,315,0.0,0.0,99,0.00,,SKC,0.00,WeatherDisplay:10.37,2013-01-30 07:44:00,
2013-01-30 01:50:00,24.8,24.6,29.59,NW,315,0.0,0.0,99,0.00,,SKC,0.00,WeatherDisplay:10.37,2013-01-30 07:50:00,
2013-01-30 01:55:00,24.8,24.6,29.58,NW,315,0.0,0.0,99,0.00,,SKC,0.00,WeatherDisplay:10.37,2013-01-30 07:55:00,
2013-01-30 02:00:00,24.8,24.6,29.58,NW,315,0.0,0.0,99,0.00,,SKC,0.00,WeatherDisplay:10.37,2013-01-30 08:00:00,
2013-01-30 02:05:00,24.8,24.6,29.58,NW,315,0.0,0.0,99,0.00,,SKC,0.00,WeatherDisplay:10.37,2013-01-30 08:05:00,
2013-01-30 02:11:00,24.6,24.4,29.58,NW,315,0.0,0.0,99,0.00,,SKC,0.00,WeatherDisplay:10.37,2013-01-30 08:11:00,
2013-01-30 02:16:00,24.6,24.4,29.58,NW,315,0.0,0.0,99,0.00,,SKC,0.00,WeatherDisplay:10.37,2013-01-30 08:16:00,
2013-01-30 02:21:00,24.6,24.4,29.58,NW,315,0.0,0.0,99,0.00,,SKC,0.00,WeatherDisplay:10.37,2013-01-30 08:21:00,
2013-01-30 02:26:00,24.6,24.4,29.59,NW,315,0.0,0.0,99,0.00,,SKC,0.00,WeatherDisplay:10.37,2013-01-30 08:26:00,
2013-01-30 02:32:00,24.6,24.4,29.59,NW,315,0.0,0.0,99,0.00,,SKC,0.00,WeatherDisplay:10.37,2013-01-30 08:32:00,
2013-01-30 02:37:00,24.4,24.2,29.59,NW,315,0.0,0.0,99,0.00,,SKC,0.00,WeatherDisplay:10.37,2013-01-30 08:37:00,
2013-01-30 02:42:00,24.4,24.2,29.58,NW,315,0.0,0.0,99,0.00,,SKC,0.00,WeatherDisplay:10.37,2013-01-30 08:42:00,
2013-01-30 02:48:00,24.3,24.0,29.57,NW,315,0.0,0.0,99,0.00,,SKC,0.00,WeatherDisplay:10.37,2013-01-30 08:48:00,
2013-01-30 02:53:00,24.1,23.8,29.57,NW,315,0.0,0.0,99,0.00,,SKC,0.00,WeatherDisplay:10.37,2013-01-30 08:53:00,
2013-01-30 02:58:00,24.1,23.8,29.57,NW,315,0.0,0.0,99,0.00,,SKC,0.00,WeatherDisplay:10.37,2013-01-30 08:58:00,
2013-01-30 03:03:00,23.9,23.7,29.56,NW,315,0.0,0.0,99,0.00,,SKC,0.00,WeatherDisplay:10.37,2013-01-30 09:03:00,
2013-01-30 03:08:00,23.9,23.7,29.55,NW,315,0.0,0.0,99,0.00,,SKC,0.00,WeatherDisplay:10.37,2013-01-30 09:08:00,
2013-01-30 03:14:00,23.7,23.5,29.57,NW,315,0.0,0.0,99,0.00,,SKC,0.00,WeatherDisplay:10.37,2013-01-30 09:14:00,
2013-01-30 03:19:00,23.7,23.5,29.56,NW,315,0.0,0.0,99,0.00,,SKC,0.00,WeatherDisplay:10.37,2013-01-30 09:19:00,
2013-01-30 03:24:00,23.5,23.3,29.55,NW,315,0.0,0.0,99,0.00,,SKC,0.00,WeatherDisplay:10.37,2013-01-30 09:24:00,
2013-01-30 03:29:00,23.5,23.3,29.55,NW,315,0.0,0.0,99,0.00,,SKC,0.00,WeatherDisplay:10.37,2013-01-30 09:29:00,
2013-01-30 03:35:00,23.5,23.3,29.57,NW,315,0.0,0.0,99,0.00,,SKC,0.00,WeatherDisplay:10.37,2013-01-30 09:35:00,
2013-01-30 03:40:00,23.5,23.3,29.57,NW,315,0.0,0.0,99,0.00,,SKC,0.00,WeatherDisplay:10.37,2013-01-30 09:40:00,
2013-01-30 03:45:00,23.5,23.3,29.57,NW,315,0.0,0.0,99,0.00,,SKC,0.00,WeatherDisplay:10.37,2013-01-30 09:45:00,
2013-01-30 03:50:00,23.5,23.3,29.57,NW,315,0.0,0.0,99,0.00,,SKC,0.00,WeatherDisplay:10.37,2013-01-30 09:50:00,
2013-01-30 03:56:00,23.5,23.3,29.57,NW,315,0.0,0.0,99,0.00,,SKC,0.00,WeatherDisplay:10.37,2013-01-30 09:56:00,
2013-01-30 04:01:00,23.5,23.3,29.56,NW,315,0.0,0.0,99,0.00,,SKC,0.00,WeatherDisplay:10.37,2013-01-30 10:01:00,
2013-01-30 04:06:00,23.5,23.3,29.57,NW,315,0.0,0.0,99,0.00,,SKC,0.00,WeatherDisplay:10.37,2013-01-30 10:06:00,
2013-01-30 04:12:00,23.4,22.9,29.57,NW,315,0.0,0.0,98,0.00,CLR,SKC,0.00,WeatherDisplay:10.37,2013-01-30 10:12:00,
2013-01-30 04:17:00,23.4,22.9,29.57,NW,315,0.0,0.0,98,0.00,,SKC,0.00,WeatherDisplay:10.37,2013-01-30 10:17:00,
2013-01-30 04:22:00,23.4,22.9,29.58,NW,315,0.0,0.0,98,0.00,CLR,SKC,0.00,WeatherDisplay:10.37,2013-01-30 10:22:00,
2013-01-30 04:27:00,23.4,22.9,29.57,NW,315,0.0,0.0,98,0.00,CLR,SKC,0.00,WeatherDisplay:10.37,2013-01-30 10:27:00,
2013-01-30 04:32:00,23.4,22.9,29.58,NW,315,0.0,0.0,98,0.00,CLR,SKC,0.00,WeatherDisplay:10.37,2013-01-30 10:32:00,
2013-01-30 04:38:00,23.4,22.6,29.58,NW,315,0.0,0.0,97,0.00,CLR,SKC,0.00,WeatherDisplay:10.37,2013-01-30 10:38:00,
2013-01-30 04:43:00,23.4,22.6,29.58,NW,315,0.0,0.0,97,0.00,CLR,SKC,0.00,WeatherDisplay:10.37,2013-01-30 10:43:00,
2013-01-30 04:48:00,23.4,22.6,29.58,NW,315,0.0,0.0,97,0.00,CLR,SKC,0.00,WeatherDisplay:10.37,2013-01-30 10:48:00,
2013-01-30 04:53:00,23.2,22.5,29.57,NW,315,0.0,0.0,97,0.00,CLR,SKC,0.00,WeatherDisplay:10.37,2013-01-30 10:53:00,
2013-01-30 04:59:00,23.2,22.2,29.56,NW,315,0.0,0.0,96,0.00,CLR,SKC,0.00,WeatherDisplay:10.37,2013-01-30 10:59:00,
2013-01-30 05:04:00,23.2,22.2,29.56,NW,315,0.0,0.0,96,0.00,CLR,SKC,0.00,WeatherDisplay:10.37,2013-01-30 11:04:00,
2013-01-30 05:09:00,23.0,22.0,29.57,NW,315,0.0,0.0,96,0.00,CLR,SKC,0.00,WeatherDisplay:10.37,2013-01-30 11:09:00,
2013-01-30 05:14:00,23.0,22.0,29.57,NW,315,0.0,0.0,96,0.00,CLR,SKC,0.00,WeatherDisplay:10.37,2013-01-30 11:14:00,
2013-01-30 05:20:00,23.0,22.0,29.59,NW,315,0.0,0.0,96,0.00,CLR,SKC,0.00,WeatherDisplay:10.37,2013-01-30 11:20:00,
2013-01-30 05:25:00,23.0,22.0,29.58,NW,315,0.0,0.0,96,0.00,CLR,SKC,0.00,WeatherDisplay:10.37,2013-01-30 11:25:00,
2013-01-30 05:30:00,23.0,22.0,29.58,NW,315,0.0,0.0,96,0.00,CLR,SKC,0.00,WeatherDisplay:10.37,2013-01-30 11:30:00,
2013-01-30 05:35:00,22.8,21.9,29.58,NW,315,0.0,0.0,96,0.00,CLR,SKC,0.00,WeatherDisplay:10.37,2013-01-30 11:35:00,
2013-01-30 05:41:00,22.8,21.9,29.58,NW,315,0.0,0.0,96,0.00,CLR,SKC,0.00,WeatherDisplay:10.37,2013-01-30 11:41:00,
2013-01-30 05:46:00,22.6,21.7,29.58,NW,315,0.0,0.0,96,0.00,CLR,SKC,0.00,WeatherDisplay:10.37,2013-01-30 11:46:00,
2013-01-30 05:51:00,22.6,21.7,29.57,NW,315,0.0,0.0,96,0.00,CLR,SKC,0.00,WeatherDisplay:10.37,2013-01-30 11:51:00,
2013-01-30 05:56:00,22.6,21.7,29.56,NW,315,0.0,0.0,96,0.00,CLR,SKC,0.00,WeatherDisplay:10.37,2013-01-30 11:56:00,
2013-01-30 06:01:00,22.5,21.2,29.56,NW,315,0.0,0.0,95,0.00,CLR,SKC,0.00,WeatherDisplay:10.37,2013-01-30 12:01:00,
2013-01-30 06:07:00,22.5,21.2,29.55,NW,315,0.0,0.0,95,0.00,CLR,SKC,0.00,WeatherDisplay:10.37,2013-01-30 12:07:00,
2013-01-30 06:12:00,22.3,21.1,29.55,NW,315,0.0,0.0,95,0.00,CLR,SKC,0.00,WeatherDisplay:10.37,2013-01-30 12:12:00,
2013-01-30 06:17:00,22.3,21.1,29.55,NW,315,0.0,0.0,95,0.00,CLR,SKC,0.00,WeatherDisplay:10.37,2013-01-30 12:17:00,
2013-01-30 06:22:00,22.1,20.6,29.55,NW,315,0.0,0.0,94,0.00,CLR,SKC,0.00,WeatherDisplay:10.37,2013-01-30 12:22:00,
2013-01-30 06:27:00,22.1,20.6,29.55,NW,315,0.0,0.0,94,0.00,CLR,SKC,0.00,WeatherDisplay:10.37,2013-01-30 12:27:00,
2013-01-30 06:32:00,21.9,20.2,29.54,NW,315,0.0,0.0,93,0.00,CLR,SKC,0.00,WeatherDisplay:10.37,2013-01-30 12:32:00,
2013-01-30 06:38:00,21.9,20.2,29.55,NW,315,0.0,0.0,93,0.00,CLR,SKC,0.00,WeatherDisplay:10.37,2013-01-30 12:38:00,
2013-01-30 06:43:00,21.7,20.0,29.55,NW,315,0.0,0.0,93,0.00,CLR,SKC,0.00,WeatherDisplay:10.37,2013-01-30 12:43:00,
2013-01-30 06:48:00,21.7,20.0,29.56,NW,315,0.0,0.0,93,0.00,CLR,SKC,0.00,WeatherDisplay:10.37,2013-01-30 12:48:00,
2013-01-30 06:53:00,21.7,20.0,29.56,NW,315,0.0,0.0,93,0.00,CLR,SKC,0.00,WeatherDisplay:10.37,2013-01-30 12:53:00,
2013-01-30 06:58:00,21.7,20.0,29.55,NW,315,0.0,0.0,93,0.00,CLR,SKC,0.00,WeatherDisplay:10.37,2013-01-30 12:58:00,
2013-01-30 07:03:00,21.6,19.9,29.56,NW,315,0.0,0.0,93,0.00,CLR,SKC,0.00,WeatherDisplay:10.37,2013-01-30 13:03:00,
2013-01-30 07:08:00,21.6,19.9,29.55,NW,315,0.0,0.0,93,0.00,CLR,SKC,0.00,WeatherDisplay:10.37,2013-01-30 13:08:00,
2013-01-30 07:14:00,21.4,19.7,29.55,NW,315,0.0,0.0,93,0.00,CLR,SKC,0.00,WeatherDisplay:10.37,2013-01-30 13:14:00,
2013-01-30 07:19:00,21.4,19.7,29.54,NW,315,0.0,0.0,93,0.00,CLR,SKC,0.00,WeatherDisplay:10.37,2013-01-30 13:19:00,
2013-01-30 07:24:00,21.4,19.7,29.54,NW,315,0.0,0.0,93,0.00,CLR,SKC,0.00,WeatherDisplay:10.37,2013-01-30 13:24:00,
2013-01-30 07:29:00,21.2,19.5,29.54,NW,315,0.0,0.0,93,0.00,CLR,SKC,0.00,WeatherDisplay:10.37,2013-01-30 13:29:00,
2013-01-30 07:35:00,21.2,19.5,29.55,NW,315,0.0,0.0,93,0.00,CLR,SKC,0.00,WeatherDisplay:10.37,2013-01-30 13:35:00,
2013-01-30 07:40:00,21.2,19.7,29.54,NW,315,0.0,0.0,94,0.00,CLR,SKC,0.00,WeatherDisplay:10.37,2013-01-30 13:40:00,
2013-01-30 07:45:00,21.2,19.7,29.54,NW,315,0.0,0.0,94,0.00,CLR,SKC,0.00,WeatherDisplay:10.37,2013-01-30 13:45:00,
2013-01-30 07:51:00,21.0,19.6,29.54,NW,315,0.0,0.0,94,0.00,CLR,SKC,0.00,WeatherDisplay:10.37,2013-01-30 13:51:00,
2013-01-30 07:56:00,21.0,19.6,29.53,NW,315,0.0,0.0,94,0.00,CLR,SKC,0.00,WeatherDisplay:10.37,2013-01-30 13:56:00,
2013-01-30 08:01:00,21.0,19.6,29.53,NW,315,0.0,0.0,94,0.00,CLR,SKC,0.00,WeatherDisplay:10.37,2013-01-30 14:01:00,
2013-01-30 08:07:00,21.0,19.6,29.54,NW,315,0.0,0.0,94,0.00,CLR,SKC,0.00,WeatherDisplay:10.37,2013-01-30 14:07:00,
2013-01-30 08:12:00,21.0,19.6,29.54,NW,315,0.0,0.0,94,0.00,CLR,SKC,0.00,WeatherDisplay:10.37,2013-01-30 14:12:00,
2013-01-30 08:17:00,21.0,19.6,29.53,NW,315,0.0,0.0,94,0.00,CLR,SKC,0.00,WeatherDisplay:10.37,2013-01-30 14:17:00,
2013-01-30 08:22:00,21.0,19.6,29.54,NW,315,0.0,0.0,94,0.00,CLR,SKC,0.00,WeatherDisplay:10.37,2013-01-30 14:22:00,
2013-01-30 08:28:00,20.8,19.4,29.53,NW,315,0.0,0.0,94,0.00,CLR,SKC,0.00,WeatherDisplay:10.37,2013-01-30 14:28:00,
2013-01-30 08:33:00,20.8,19.1,29.53,NW,315,0.0,0.0,93,0.00,CLR,SKC,0.00,WeatherDisplay:10.37,2013-01-30 14:33:00,
2013-01-30 08:38:00,20.7,19.0,29.53,NW,315,0.0,0.0,93,0.00,CLR,SKC,0.00,WeatherDisplay:10.37,2013-01-30 14:38:00,
2013-01-30 08:43:00,20.7,19.0,29.53,NW,315,0.0,0.0,93,0.00,CLR,SKC,0.00,WeatherDisplay:10.37,2013-01-30 14:43:00,
2013-01-30 08:48:00,20.5,18.8,29.52,NW,315,0.0,0.0,93,0.00,CLR,SKC,0.00,WeatherDisplay:10.37,2013-01-30 14:48:00,
2013-01-30 08:54:00,20.5,18.8,29.52,NW,315,0.0,0.0,93,0.00,CLR,SKC,0.00,WeatherDisplay:10.37,2013-01-30 14:54:00,
2013-01-30 08:59:00,20.3,18.6,29.52,NW,315,0.0,0.0,93,0.00,CLR,SKC,0.00,WeatherDisplay:10.37,2013-01-30 14:59:00,
2013-01-30 09:04:00,20.3,18.6,29.52,NW,315,0.0,0.0,93,0.00,CLR,SKC,0.00,WeatherDisplay:10.37,2013-01-30 15:04:00,
2013-01-30 09:09:00,20.3,18.6,29.52,NW,315,0.0,0.0,93,0.00,CLR,SKC,0.00,WeatherDisplay:10.37,2013-01-30 15:09:00,
2013-01-30 09:14:00,20.3,18.6,29.51,NW,315,0.0,0.0,93,0.00,CLR,SKC,0.00,WeatherDisplay:10.37,2013-01-30 15:14:00,
2013-01-30 09:20:00,20.1,18.4,29.51,NW,315,0.0,0.0,93,0.00,CLR,SKC,0.00,WeatherDisplay:10.37,2013-01-30 15:20:00,
2013-01-30 09:25:00,20.3,18.6,29.51,NW,315,0.0,0.0,93,0.00,CLR,SKC,0.00,WeatherDisplay:10.37,2013-01-30 15:25:00,
2013-01-30 09:30:00,20.3,18.6,29.51,NW,315,0.0,0.0,93,0.00,CLR,SKC,0.00,WeatherDisplay:10.37,2013-01-30 15:30:00,
2013-01-30 09:35:00,20.3,18.6,29.51,NW,315,0.0,0.0,93,0.00,CLR,SKC,0.00,WeatherDisplay:10.37,2013-01-30 15:35:00,
2013-01-30 09:40:00,20.3,18.6,29.51,NW,315,0.0,0.0,93,0.00,CLR,SKC,0.00,WeatherDisplay:10.37,2013-01-30 15:40:00,
2013-01-30 09:46:00,20.3,18.6,29.50,NW,315,0.0,0.0,93,0.00,CLR,SKC,0.00,WeatherDisplay:10.37,2013-01-30 15:46:00,
2013-01-30 09:51:00,20.3,18.6,29.50,NW,315,0.0,0.0,93,0.00,CLR,SKC,0.00,WeatherDisplay:10.37,2013-01-30 15:51:00,
2013-01-30 09:56:00,20.3,18.6,29.50,NW,315,0.0,0.0,93,0.00,CLR,SKC,0.00,WeatherDisplay:10.37,2013-01-30 15:56:00,
2013-01-30 10:02:00,20.1,18.4,29.50,NW,315,0.0,0.0,93,0.00,CLR,SKC,0.00,WeatherDisplay:10.37,2013-01-30 16:02:00,
2013-01-30 10:07:00,20.1,18.4,29.50,NW,315,0.0,0.0,93,0.00,CLR,SKC,0.00,WeatherDisplay:10.37,2013-01-30 16:07:00,
2013-01-30 10:12:00,20.1,18.4,29.51,NW,315,0.0,0.0,93,0.00,CLR,SKC,0.00,WeatherDisplay:10.37,2013-01-30 16:12:00,
2013-01-30 10:17:00,20.1,18.4,29.51,NW,315,0.0,0.0,93,0.00,CLR,SKC,0.00,WeatherDisplay:10.37,2013-01-30 16:17:00,
2013-01-30 10:22:00,20.1,18.4,29.51,NW,315,0.0,0.0,93,0.00,CLR,SKC,0.00,WeatherDisplay:10.37,2013-01-30 16:22:00,
2013-01-30 10:27:00,20.1,18.4,29.51,NW,315,0.0,0.0,93,0.00,CLR,SKC,0.00,WeatherDisplay:10.37,2013-01-30 16:27:00,
2013-01-30 10:33:00,19.9,18.2,29.51,NW,315,0.0,0.0,93,0.00,CLR,SKC,0.00,WeatherDisplay:10.37,2013-01-30 16:33:00,
2013-01-30 10:38:00,19.9,18.2,29.51,NW,315,0.0,0.0,93,0.00,CLR,SKC,0.00,WeatherDisplay:10.37,2013-01-30 16:38:00,
2013-01-30 10:43:00,19.9,18.2,29.51,NW,315,0.0,0.0,93,0.00,CLR,SKC,0.00,WeatherDisplay:10.37,2013-01-30 16:43:00,
2013-01-30 10:48:00,19.9,18.2,29.51,NW,315,0.0,0.0,93,0.00,CLR,SKC,0.00,WeatherDisplay:10.37,2013-01-30 16:48:00,
2013-01-30 10:53:00,19.9,18.2,29.51,NW,315,0.0,0.0,93,0.00,CLR,SKC,0.00,WeatherDisplay:10.37,2013-01-30 16:53:00,
2013-01-30 10:59:00,20.1,18.4,29.50,NW,315,0.0,0.0,93,0.00,CLR,SKC,0.00,WeatherDisplay:10.37,2013-01-30 16:59:00,
2013-01-30 11:04:00,19.9,18.2,29.50,NW,315,0.0,0.0,93,0.00,CLR,SKC,0.00,WeatherDisplay:10.37,2013-01-30 17:04:00,
2013-01-30 11:09:00,19.9,18.5,29.50,NW,315,0.0,0.0,94,0.00,CLR,SKC,0.00,WeatherDisplay:10.37,2013-01-30 17:09:00,
2013-01-30 11:14:00,19.9,18.2,29.49,NW,315,0.0,0.0,93,0.00,CLR,SKC,0.00,WeatherDisplay:10.37,2013-01-30 17:14:00,
2013-01-30 11:19:00,19.9,18.2,29.50,NW,315,0.0,0.0,93,0.00,CLR,SKC,0.00,WeatherDisplay:10.37,2013-01-30 17:19:00,
2013-01-30 11:25:00,19.8,18.1,29.49,NW,315,0.0,0.0,93,0.00,CLR,SKC,0.00,WeatherDisplay:10.37,2013-01-30 17:25:00,
2013-01-30 11:30:00,19.8,18.1,29.48,NW,315,0.0,0.0,93,0.00,CLR,SKC,0.00,WeatherDisplay:10.37,2013-01-30 17:30:00,
2013-01-30 11:35:00,19.8,18.3,29.48,NW,315,0.0,0.0,94,0.00,CLR,SKC,0.00,WeatherDisplay:10.37,2013-01-30 17:35:00,
2013-01-30 11:40:00,19.8,18.3,29.48,NW,315,0.0,0.0,94,0.00,CLR,SKC,0.00,WeatherDisplay:10.37,2013-01-30 17:40:00,
2013-01-30 11:45:00,19.8,18.3,29.48,NW,315,0.0,0.0,94,0.00,CLR,SKC,0.00,WeatherDisplay:10.37,2013-01-30 17:45:00,
2013-01-30 11:51:00,19.8,18.3,29.48,NW,315,0.0,0.0,94,0.00,CLR,SKC,0.00,WeatherDisplay:10.37,2013-01-30 17:51:00,
2013-01-30 11:56:00,19.9,18.5,29.48,NW,315,0.0,0.0,94,0.00,CLR,SKC,0.00,WeatherDisplay:10.37,2013-01-30 17:56:00,
2013-01-30 12:01:00,19.8,18.3,29.49,NW,315,0.0,0.0,94,0.00,CLR,SKC,0.00,WeatherDisplay:10.37,2013-01-30 18:01:00,
2013-01-30 12:06:00,19.8,18.3,29.49,NW,315,0.0,0.0,94,0.00,CLR,SKC,0.00,WeatherDisplay:10.37,2013-01-30 18:06:00,
2013-01-30 12:11:00,19.8,18.1,29.48,NW,315,0.0,0.0,93,0.00,CLR,SKC,0.00,WeatherDisplay:10.37,2013-01-30 18:11:00,
2013-01-30 12:17:00,19.8,18.1,29.48,NW,315,0.0,0.0,93,0.00,CLR,SKC,0.00,WeatherDisplay:10.37,2013-01-30 18:17:00,
2013-01-30 12:22:00,19.8,18.1,29.48,NW,315,0.0,0.0,93,0.00,CLR,SKC,0.00,WeatherDisplay:10.37,2013-01-30 18:22:00,
2013-01-30 12:27:00,19.6,17.9,29.48,NW,315,0.0,0.0,93,0.00,CLR,SKC,0.00,WeatherDisplay:10.37,2013-01-30 18:27:00,
2013-01-30 12:32:00,19.4,17.7,29.48,NW,315,0.0,0.0,93,0.00,CLR,SKC,0.00,WeatherDisplay:10.37,2013-01-30 18:32:00,
2013-01-30 12:38:00,19.4,17.7,29.48,NW,315,0.0,0.0,93,0.00,CLR,SKC,0.00,WeatherDisplay:10.37,2013-01-30 18:38:00,
2013-01-30 12:43:00,19.2,17.5,29.48,NW,315,0.0,0.0,93,0.00,CLR,SKC,0.00,WeatherDisplay:10.37,2013-01-30 18:43:00,
2013-01-30 12:48:00,19.2,17.5,29.48,NW,315,0.0,0.0,93,0.00,CLR,SKC,0.00,WeatherDisplay:10.37,2013-01-30 18:48:00,
2013-01-30 12:54:00,19.2,17.5,29.48,NW,315,0.0,0.0,93,0.00,CLR,SKC,0.00,WeatherDisplay:10.37,2013-01-30 18:54:00,
2013-01-30 12:59:00,19.0,17.6,29.48,NW,315,0.0,0.0,94,0.00,CLR,SKC,0.00,WeatherDisplay:10.37,2013-01-30 18:59:00,
2013-01-30 13:04:00,19.0,17.6,29.48,NW,315,0.0,0.0,94,0.00,CLR,SKC,0.00,WeatherDisplay:10.37,2013-01-30 19:04:00,
2013-01-30 13:09:00,18.7,17.0,29.48,NW,315,0.0,0.0,93,0.00,CLR,SKC,0.00,WeatherDisplay:10.37,2013-01-30 19:09:00,
2013-01-30 13:14:00,18.7,17.2,29.47,NW,315,0.0,0.0,94,0.00,CLR,SKC,0.00,WeatherDisplay:10.37,2013-01-30 19:14:00,
2013-01-30 13:19:00,18.9,17.4,29.47,NW,315,0.0,0.0,94,0.00,CLR,SKC,0.00,WeatherDisplay:10.37,2013-01-30 19:19:00,
2013-01-30 13:25:00,18.7,17.2,29.47,NW,315,0.0,0.0,94,0.00,CLR,SKC,0.00,WeatherDisplay:10.37,2013-01-30 19:25:00,
2013-01-30 13:30:00,18.5,17.1,29.46,NW,315,0.0,0.0,94,0.00,CLR,SKC,0.00,WeatherDisplay:10.37,2013-01-30 19:30:00,
2013-01-30 13:35:00,18.3,16.9,29.47,NW,315,0.0,0.0,94,0.00,CLR,SKC,0.00,WeatherDisplay:10.37,2013-01-30 19:35:00,
2013-01-30 13:40:00,18.0,16.3,29.47,NW,315,0.0,0.0,93,0.00,CLR,SKC,0.00,WeatherDisplay:10.37,2013-01-30 19:40:00,
2013-01-30 13:45:00,17.6,15.7,29.47,NW,315,0.0,0.0,92,0.00,CLR,SKC,0.00,WeatherDisplay:10.37,2013-01-30 19:45:00,
2013-01-30 13:50:00,17.6,15.7,29.47,NW,315,0.0,0.0,92,0.00,CLR,SKC,0.00,WeatherDisplay:10.37,2013-01-30 19:50:00,
2013-01-30 13:55:00,17.2,15.3,29.47,NW,315,0.0,0.0,92,0.00,CLR,SKC,0.00,WeatherDisplay:10.37,2013-01-30 19:55:00,
2013-01-30 14:00:00,17.2,15.3,29.48,NW,315,0.0,0.0,92,0.00,CLR,SKC,0.00,WeatherDisplay:10.37,2013-01-30 20:00:00,
2013-01-30 14:06:00,17.2,15.3,29.48,NW,315,0.0,0.0,92,0.00,CLR,SKC,0.00,WeatherDisplay:10.37,2013-01-30 20:06:00,
2013-01-30 14:11:00,16.9,14.7,29.48,NW,315,0.0,0.0,91,0.00,CLR,SKC,0.00,WeatherDisplay:10.37,2013-01-30 20:11:00,
2013-01-30 14:16:00,16.7,14.5,29.48,NW,315,0.0,0.0,91,0.00,CLR,SKC,0.00,WeatherDisplay:10.37,2013-01-30 20:16:00,
2013-01-30 14:21:00,16.7,14.8,29.48,NW,315,0.0,0.0,92,0.00,CLR,SKC,0.00,WeatherDisplay:10.37,2013-01-30 20:21:00,
2013-01-30 14:26:00,16.7,14.8,29.47,NW,315,0.0,0.0,92,0.00,CLR,SKC,0.00,WeatherDisplay:10.37,2013-01-30 20:26:00,
2013-01-30 14:31:00,16.5,14.6,29.48,NW,315,0.0,0.0,92,0.00,CLR,SKC,0.00,WeatherDisplay:10.37,2013-01-30 20:31:00,
2013-01-30 14:36:00,16.2,14.0,29.47,NW,315,0.0,0.0,91,0.00,CLR,SKC,0.00,WeatherDisplay:10.37,2013-01-30 20:36:00,
2013-01-30 14:41:00,16.0,13.8,29.48,NW,315,0.0,0.0,91,0.00,CLR,SKC,0.00,WeatherDisplay:10.37,2013-01-30 20:41:00,
2013-01-30 14:46:00,15.8,13.6,29.48,NW,315,0.0,0.0,91,0.00,CLR,SKC,0.00,WeatherDisplay:10.37,2013-01-30 20:46:00,
2013-01-30 14:51:00,15.8,13.9,29.48,NW,315,0.0,0.0,92,0.00,CLR,SKC,0.00,WeatherDisplay:10.37,2013-01-30 20:51:00,
2013-01-30 14:56:00,15.6,13.7,29.48,NW,315,0.0,0.0,92,0.00,CLR,SKC,0.00,WeatherDisplay:10.37,2013-01-30 20:56:00,
2013-01-30 15:02:00,15.6,13.7,29.48,NW,315,0.0,0.0,92,0.00,CLR,SKC,0.00,WeatherDisplay:10.37,2013-01-30 21:02:00,
2013-01-30 15:07:00,15.6,13.7,29.48,NW,315,0.0,0.0,92,0.00,CLR,SKC,0.00,WeatherDisplay:10.37,2013-01-30 21:07:00,
2013-01-30 15:12:00,15.4,13.5,29.48,NW,315,0.0,0.0,92,0.00,CLR,SKC,0.00,WeatherDisplay:10.37,2013-01-30 21:12:00,
2013-01-30 15:17:00,15.4,13.5,29.48,NW,315,0.0,0.0,92,0.00,CLR,SKC,0.00,WeatherDisplay:10.37,2013-01-30 21:17:00,
2013-01-30 15:22:00,15.3,13.4,29.48,NW,315,0.0,0.0,92,0.00,CLR,SKC,0.00,WeatherDisplay:10.37,2013-01-30 21:22:00,
2013-01-30 15:27:00,15.3,13.4,29.48,NW,315,0.0,0.0,92,0.00,CLR,SKC,0.00,WeatherDisplay:10.37,2013-01-30 21:27:00,
2013-01-30 15:32:00,15.3,13.4,29.48,NW,315,0.0,0.0,92,0.00,CLR,SKC,0.00,WeatherDisplay:10.37,2013-01-30 21:32:00,
2013-01-30 15:37:00,15.3,13.4,29.48,NW,315,0.0,0.0,92,0.00,CLR,SKC,0.00,WeatherDisplay:10.37,2013-01-30 21:37:00,
2013-01-30 15:43:00,15.1,13.2,29.49,NW,315,0.0,0.0,92,0.00,CLR,SKC,0.00,WeatherDisplay:10.37,2013-01-30 21:43:00,
2013-01-30 15:48:00,15.1,13.2,29.48,NW,315,0.0,0.0,92,0.00,CLR,SKC,0.00,WeatherDisplay:10.37,2013-01-30 21:48:00,
2013-01-30 15:53:00,14.9,13.0,29.48,NW,315,0.0,0.0,92,0.00,CLR,SKC,0.00,WeatherDisplay:10.37,2013-01-30 21:53:00,
2013-01-30 15:58:00,14.9,13.0,29.49,NW,315,0.0,0.0,92,0.00,CLR,SKC,0.00,WeatherDisplay:10.37,2013-01-30 21:58:00,
2013-01-30 16:03:00,14.7,12.8,29.49,NW,315,0.0,0.0,92,0.00,CLR,SKC,0.00,WeatherDisplay:10.37,2013-01-30 22:03:00,
2013-01-30 16:09:00,14.5,12.6,29.49,NW,315,0.0,0.0,92,0.00,CLR,SKC,0.00,WeatherDisplay:10.37,2013-01-30 22:09:00,
2013-01-30 16:14:00,14.4,12.7,29.49,NW,315,0.0,0.0,93,0.00,CLR,SKC,0.00,WeatherDisplay:10.37,2013-01-30 22:14:00,
2013-01-30 16:19:00,14.4,12.7,29.49,NW,315,0.0,0.0,93,0.00,CLR,SKC,0.00,WeatherDisplay:10.37,2013-01-30 22:19:00,
2013-01-30 16:24:00,14.2,12.5,29.49,NW,315,0.0,0.0,93,0.00,CLR,SKC,0.00,WeatherDisplay:10.37,2013-01-30 22:24:00,
2013-01-30 16:29:00,14.0,12.3,29.49,NW,315,0.0,0.0,93,0.00,CLR,SKC,0.00,WeatherDisplay:10.37,2013-01-30 22:29:00,
2013-01-30 16:34:00,14.0,12.3,29.49,NW,315,0.0,0.0,93,0.00,CLR,SKC,0.00,WeatherDisplay:10.37,2013-01-30 22:34:00,
2013-01-30 16:39:00,13.8,12.2,29.48,NW,315,0.0,0.0,93,0.00,CLR,SKC,0.00,WeatherDisplay:10.37,2013-01-30 22:39:00,
2013-01-30 16:44:00,13.6,12.0,29.49,NW,315,0.0,0.0,93,0.00,CLR,SKC,0.00,WeatherDisplay:10.37,2013-01-30 22:44:00,
2013-01-30 16:49:00,13.6,12.0,29.49,NW,315,0.0,0.0,93,0.00,CLR,SKC,0.00,WeatherDisplay:10.37,2013-01-30 22:49:00,
2013-01-30 16:55:00,13.6,12.0,29.49,NW,315,0.0,0.0,93,0.00,CLR,SKC,0.00,WeatherDisplay:10.37,2013-01-30 22:55:00,
2013-01-30 17:00:00,13.5,11.8,29.49,NW,315,0.0,0.0,93,0.00,CLR,SKC,0.00,WeatherDisplay:10.37,2013-01-30 23:00:00,
2013-01-30 17:05:00,13.5,11.8,29.49,NW,315,0.0,0.0,93,0.00,CLR,SKC,0.00,WeatherDisplay:10.37,2013-01-30 23:05:00,
2013-01-30 17:10:00,13.3,11.6,29.49,NW,315,0.0,0.0,93,0.00,CLR,SKC,0.00,WeatherDisplay:10.37,2013-01-30 23:10:00,
2013-01-30 17:15:00,13.3,11.6,29.49,NW,315,0.0,0.0,93,0.00,CLR,SKC,0.00,WeatherDisplay:10.37,2013-01-30 23:15:00,